When you browse on this site, cookies collect data to enhance your experience and personalize the content and advertising you see.
Visit our Privacy Policy to learn more. By continuing to use the site, you agree to this use of cookies and data.
  • In United Kingdom
  • List of Countries
  • For 7 days
  • Water Temperature
  • Satellite Maps
  • Weather Map
  • Weather Widgets
  • user-avatar
    Login

    Hourly Weather Cuilapa

    Today, 23 July, Tuesday

    Time Temperature Precipitation Wind Pressure Humidity
    00:00 +21°C° 0.1 mm 1 mps 686 mmHg 91%
    01:00 +21°C° 0.2 mm 1 mps 686 mmHg 91%
    02:00 +21°C° 0.2 mm 1 mps 686 mmHg 91%
    03:00 +20°C° 0.2 mm 1 mps 685 mmHg 91%
    04:00 +20°C° 0 mm 1 mps 685 mmHg 90%
    05:00 +20°C° 0 mm 1 mps 685 mmHg 90%
    06:00 +20°C° 0 mm 1 mps 685 mmHg 90%
    07:00 +23°C° 0 mm 1 mps 686 mmHg 84%
    08:00 +23°C° 0 mm 0 mps 687 mmHg 77%
    09:00 +25°C° 0 mm 0 mps 688 mmHg 71%
    10:00 +28°C° 0.1 mm 1 mps 688 mmHg 69%
    11:00 +29°C° 0.1 mm 1 mps 688 mmHg 68%
    12:00 +30°C° 0.1 mm 1 mps 687 mmHg 66%
    13:00 +29°C° 1.1 mm 1 mps 687 mmHg 71%
    14:00 +28°C° 1.1 mm 1 mps 686 mmHg 77%
    15:00 +28°C° 1.1 mm 1 mps 686 mmHg 82%
    16:00 +26°C° 0.6 mm 1 mps 686 mmHg 86%
    17:00 +25°C° 0.6 mm 1 mps 685 mmHg 90%
    18:00 +24°C° 0.6 mm 1 mps 685 mmHg 94%
    19:00 +23°C° 0.1 mm 1 mps 686 mmHg 94%
    20:00 +23°C° 0.1 mm 1 mps 686 mmHg 94%
    21:00 +22°C° 0.1 mm 1 mps 687 mmHg 94%
    22:00 +21°C° 0.2 mm 1 mps 687 mmHg 94%
    23:00 +21°C° 0.2 mm 1 mps 687 mmHg 94%

    Tomorrow, 24 July, Wednesday

    Time Temperature Precipitation Wind Pressure Humidity
    00:00 +20°C° 0.2 mm 1 mps 686 mmHg 93%
    01:00 +20°C° 0 mm 1 mps 686 mmHg 93%
    02:00 +20°C° 0 mm 1 mps 686 mmHg 93%
    03:00 +19°C° 0 mm 2 mps 685 mmHg 92%
    04:00 +19°C° 0 mm 2 mps 685 mmHg 91%
    05:00 +19°C° 0 mm 2 mps 685 mmHg 91%
    06:00 +19°C° 0 mm 2 mps 686 mmHg 90%
    07:00 +22°C° 0 mm 1 mps 686 mmHg 81%
    08:00 +25°C° 0 mm 1 mps 687 mmHg 73%
    09:00 +27°C° 0 mm 1 mps 688 mmHg 64%
    10:00 +28°C° 0 mm 1 mps 688 mmHg 63%
    11:00 +29°C° 0 mm 1 mps 688 mmHg 61%
    12:00 +30°C° 0 mm 2 mps 688 mmHg 60%
    13:00 +29°C° 0.3 mm 1 mps 687 mmHg 65%
    14:00 +29°C° 0.3 mm 1 mps 686 mmHg 69%
    15:00 +28°C° 0.3 mm 1 mps 685 mmHg 74%
    16:00 +27°C° 0.4 mm 1 mps 685 mmHg 81%
    17:00 +26°C° 0.4 mm 1 mps 685 mmHg 87%
    18:00 +23°C° 0.4 mm 0 mps 685 mmHg 93%
    19:00 +24°C° 0.3 mm 1 mps 685 mmHg 94%
    20:00 +23°C° 0.3 mm 1 mps 686 mmHg 94%
    21:00 +22°C° 0.3 mm 1 mps 686 mmHg 95%
    22:00 +22°C° 0.1 mm 1 mps 686 mmHg 95%
    23:00 +21°C° 0.1 mm 1 mps 686 mmHg 95%

    Day after tomorrow, 25 July, Thursday

    Time Temperature Precipitation Wind Pressure Humidity
    00:00 +21°C° 0.1 mm 1 mps 686 mmHg 95%
    01:00 +20°C° 0 mm 2 mps 685 mmHg 94%
    02:00 +19°C° 0 mm 2 mps 685 mmHg 94%
    03:00 +19°C° 0 mm 2 mps 685 mmHg 93%
    04:00 +19°C° 0 mm 2 mps 685 mmHg 93%
    05:00 +19°C° 0 mm 2 mps 685 mmHg 92%
    06:00 +19°C° 0 mm 2 mps 685 mmHg 92%
    07:00 +22°C° 0 mm 1 mps 686 mmHg 84%
    08:00 +25°C° 0 mm 1 mps 687 mmHg 76%
    09:00 +27°C° 0 mm 1 mps 687 mmHg 68%
    10:00 +27°C° 0.3 mm 1 mps 687 mmHg 70%
    11:00 +28°C° 0.3 mm 1 mps 687 mmHg 72%
    12:00 +28°C° 0.3 mm 2 mps 687 mmHg 74%
    13:00 +28°C° 0.9 mm 1 mps 686 mmHg 75%
    14:00 +28°C° 0.9 mm 1 mps 686 mmHg 77%
    15:00 +28°C° 0.9 mm 1 mps 685 mmHg 78%
    16:00 +27°C° 0.3 mm 1 mps 685 mmHg 83%
    17:00 +26°C° 0.3 mm 1 mps 685 mmHg 88%
    18:00 +25°C° 0.3 mm 1 mps 685 mmHg 93%
    19:00 +24°C° 0.4 mm 1 mps 686 mmHg 93%
    20:00 +23°C° 0.4 mm 1 mps 686 mmHg 94%
    21:00 +22°C° 0.4 mm 1 mps 686 mmHg 94%
    22:00 +20°C° 0 mm 2 mps 686 mmHg 93%
    23:00 +20°C° 0 mm 2 mps 686 mmHg 92%

    26 July, Friday

    Time Temperature Precipitation Wind Pressure Humidity
    00:00 +20°C° 0 mm 2 mps 686 mmHg 90%
    01:00 +20°C° 0 mm 2 mps 686 mmHg 90%
    02:00 +19°C° 0 mm 2 mps 685 mmHg 89%
    03:00 +19°C° 0 mm 2 mps 685 mmHg 89%
    04:00 +19°C° 0 mm 2 mps 685 mmHg 89%
    05:00 +19°C° 0 mm 2 mps 685 mmHg 88%
    06:00 +19°C° 0 mm 2 mps 685 mmHg 88%
    07:00 +21°C° 0 mm 2 mps 686 mmHg 80%
    08:00 +25°C° 0 mm 2 mps 687 mmHg 71%
    09:00 +27°C° 0 mm 1 mps 688 mmHg 63%
    10:00 +28°C° 0 mm 2 mps 688 mmHg 56%
    11:00 +30°C° 0 mm 2 mps 688 mmHg 49%
    12:00 +31°C° 0 mm 2 mps 688 mmHg 42%
    13:00 +30°C° 0 mm 2 mps 687 mmHg 46%
    14:00 +30°C° 0 mm 2 mps 686 mmHg 50%
    15:00 +30°C° 0 mm 2 mps 686 mmHg 54%
    16:00 +28°C° 0.1 mm 2 mps 686 mmHg 64%
    17:00 +26°C° 0.1 mm 1 mps 686 mmHg 74%
    18:00 +25°C° 0.1 mm 1 mps 685 mmHg 83%
    19:00 +23°C° 0.1 mm 1 mps 686 mmHg 83%
    20:00 +21°C° 0.1 mm 2 mps 686 mmHg 83%
    21:00 +20°C° 0.1 mm 2 mps 687 mmHg 84%
    22:00 +20°C° 0 mm 2 mps 687 mmHg 84%
    23:00 +20°C° 0 mm 2 mps 687 mmHg 84%

    27 July, Saturday

    Time Temperature Precipitation Wind Pressure Humidity
    00:00 +20°C° 0 mm 2 mps 686 mmHg 84%
    01:00 +20°C° 0 mm 2 mps 686 mmHg 84%
    02:00 +19°C° 0 mm 2 mps 686 mmHg 84%
    03:00 +19°C° 0 mm 2 mps 685 mmHg 83%
    04:00 +19°C° 0 mm 2 mps 686 mmHg 82%
    05:00 +19°C° 0 mm 2 mps 686 mmHg 80%
    06:00 +19°C° 0 mm 2 mps 686 mmHg 78%
    07:00 +21°C° 0 mm 2 mps 687 mmHg 73%
    08:00 +24°C° 0 mm 2 mps 687 mmHg 67%
    09:00 +26°C° 0 mm 2 mps 688 mmHg 62%
    10:00 +28°C° 0 mm 2 mps 688 mmHg 58%
    11:00 +29°C° 0 mm 2 mps 688 mmHg 54%
    12:00 +30°C° 0 mm 2 mps 688 mmHg 50%
    13:00 +30°C° 0 mm 2 mps 687 mmHg 53%
    14:00 +30°C° 0 mm 2 mps 687 mmHg 56%
    15:00 +29°C° 0 mm 2 mps 686 mmHg 59%
    16:00 +28°C° 0.5 mm 2 mps 686 mmHg 69%
    17:00 +26°C° 0.5 mm 1 mps 686 mmHg 80%
    18:00 +24°C° 0.5 mm 1 mps 686 mmHg 90%
    19:00 +23°C° 0.6 mm 1 mps 686 mmHg 92%
    20:00 +22°C° 0.6 mm 1 mps 686 mmHg 93%
    21:00 +20°C° 0.6 mm 2 mps 687 mmHg 94%
    22:00 +20°C° 0.6 mm 2 mps 687 mmHg 95%
    23:00 +20°C° 0.6 mm 2 mps 687 mmHg 95%

    28 July, Sunday

    Time Temperature Precipitation Wind Pressure Humidity
    00:00 +20°C° 0.6 mm 2 mps 687 mmHg 96%
    01:00 +20°C° 0.7 mm 2 mps 687 mmHg 95%
    02:00 +20°C° 0.7 mm 2 mps 686 mmHg 94%
    03:00 +20°C° 0.7 mm 2 mps 686 mmHg 94%
    04:00 +19°C° 0 mm 2 mps 686 mmHg 92%
    05:00 +19°C° 0 mm 2 mps 686 mmHg 91%
    06:00 +19°C° 0 mm 2 mps 686 mmHg 90%
    07:00 +21°C° 0.2 mm 2 mps 687 mmHg 85%
    08:00 +24°C° 0.2 mm 2 mps 687 mmHg 81%
    09:00 +26°C° 0.2 mm 2 mps 688 mmHg 76%
    10:00 +26°C° 0.7 mm 2 mps 688 mmHg 77%
    11:00 +27°C° 0.7 mm 2 mps 688 mmHg 77%
    12:00 +27°C° 0.7 mm 2 mps 688 mmHg 78%
    13:00 +26°C° 0.1 mm 2 mps 687 mmHg 79%
    14:00 +25°C° 0.1 mm 1 mps 686 mmHg 80%
    15:00 +25°C° 0.1 mm 1 mps 686 mmHg 82%
    16:00 +24°C° 0.1 mm 1 mps 686 mmHg 82%
    17:00 +24°C° 0.1 mm 1 mps 686 mmHg 82%
    18:00 +24°C° 0.1 mm 1 mps 686 mmHg 82%
    19:00 +23°C° 0 mm 1 mps 686 mmHg 81%
    20:00 +23°C° 0 mm 2 mps 686 mmHg 80%
    21:00 +21°C° 0 mm 2 mps 687 mmHg 79%
    22:00 +21°C° 0 mm 2 mps 687 mmHg 80%
    23:00 +20°C° 0 mm 2 mps 686 mmHg 80%
    Show more